Location: Bastrop State Park
(30.1090°N, 97.2819°W)
Time: 22:58:35
(UTC-06:00)

Daily predictions for brighter satellites

Satellite Brightness Start Highest point End
(mag) Time Altitude Azimuth Time Altitude Azimuth Time Altitude Azimuth
Cosmos 1844 Rocket 4.3 18:14:00 10° NW 18:19:15 41° WSW 18:24:27 10° S
Cosmos 2297 4.4 18:15:09 10° N 18:20:15 33° ENE 18:25:21 10° SE
Meteor 1-28 Rocket 3.6 18:19:56 10° NNE 18:23:28 40° E 18:26:58 10° S
Tiangong 1 1.2 18:22:39 10° SW 18:25:34 56° SE 18:28:29 10° ENE
Aureole 2 Rocket 4.4 18:22:20 10° SW 18:25:40 33° WNW 18:29:17 10° N
Hubble Space Telescope 4.0 18:25:40 10° SW 18:26:25 10° SSW 18:27:10 10° SSW
Cosmos 1151 Rocket 3.3 18:22:18 10° N 18:26:34 73° W 18:30:52 10° S
Intelsat 5-1 Rocket 2.9 18:26:55 10° SW 18:28:54 23° S 18:31:36 10° ESE
IDEFIX/ARIANE 42P 3.7 18:24:56 10° S 18:29:56 49° W 18:35:00 10° NNW
Cosmos 2279 Rocket 4.0 18:25:35 10° N 18:31:47 69° E 18:37:58 10° SSE
Milstar 3 3.4 18:26:35 10° W 18:33:29 55° SSW 18:40:17 10° ESE
Cosmos 372 Rocket 4.0 18:29:24 10° NNW 18:34:31 89° E 18:39:37 10° SSE
Cosmos 2058 3.8 18:30:48 10° SSW 18:34:48 52° W 18:38:48 10° N
OAO 1 Rocket 4.5 18:30:46 10° WNW 18:36:04 69° NNE 18:41:21 10° E
Cosmos 773 Rocket 4.1 18:32:04 10° S 18:37:04 54° ESE 18:42:07 10° NNE
Cosmos 1805 Rocket 3.6 18:34:50 10° S 18:39:17 89° E 18:43:45 10° N
Nadezhda 4 Rocket 4.0 18:38:30 10° S 18:44:37 60° E 18:50:48 10° NNE
Cosmos 1626 2.1 18:42:18 10° S 18:46:01 85° E 18:49:46 10° N
SKYMED 2 4.2 18:43:15 10° N 18:47:32 58° WNW 18:51:46 10° SSW
ATLAS 2A CENTAUR R/B 3.3 18:49:26 10° SE 18:49:54 10° SE 18:50:25 10° SE
Sich 1 3.0 18:47:45 10° S 18:52:11 78° E 18:56:37 10° N
Cosmos 1356 Rocket 3.5 18:50:51 10° SSW 18:54:48 73° W 18:58:48 10° N
Aureole 1 Rocket 3.7 18:51:18 10° S 18:56:12 79° ESE 19:02:48 10° NNE
Lacrosse 5 rocket 1.5 18:55:34 10° NW 18:59:25 69° SW 19:03:30 10° SSE
ALOS 3.3 18:56:09 10° ESE 18:59:48 23° ENE 19:03:28 10° NNE
Coronas F rocket 0.8 18:59:41 10° S 19:02:02 89° SW 19:03:52 15° N
Cosmos 1633 Rocket 3.0 18:58:13 10° S 19:02:38 89° NW 19:07:02 10° N
Cosmos 1603 3.6 19:00:31 10° S 19:06:05 71° ESE 19:11:40 10° NNE
Cosmos 1092 Rocket 4.0 19:00:47 10° S 19:07:01 66° E 19:13:18 10° NNE
Delta 2 Rocket 3.0 19:05:17 10° SW 19:08:34 57° SSE 19:09:44 34° E
Cosmos 292 Rocket 3.7 19:05:01 10° S 19:09:43 67° ESE 19:14:08 12° NNE
Cosmos 1455 2.1 19:10:26 10° N 19:14:15 86° E 19:18:05 10° S
Cosmos 1184 Rocket 4.3 19:13:56 10° SSW 19:17:05 38° W 19:20:13 10° N
Cosmos 2278 Rocket 4.3 19:14:15 10° NW 19:19:02 29° WSW 19:23:48 10° SSW
SJ-6B 2.7 19:17:23 10° SSE 19:21:26 78° ENE 19:25:34 10° N
Spot 2 Rocket 3.8 19:21:44 10° SE 19:26:26 41° ENE 19:31:09 10° N
USA 229 DEB 4.4 19:20:47 10° SW 19:27:25 52° WNW 19:34:09 10° NNE
USA 229 4.4 19:20:52 10° SW 19:27:30 53° WNW 19:34:15 10° NNE
Iridium 4 Rocket 3.1 19:25:29 10° S 19:30:06 82° W 19:34:24 10° N
Cosmos 2195 Rocket 4.4 19:24:13 10° S 19:30:13 65° E 19:36:17 10° NNE
OTV 4 3.4 19:29:19 10° WSW 19:30:46 13° SW 19:32:13 10° S
FREGAT/IRIS 3.5 19:34:08 10° S 19:37:06 50° W 19:40:05 10° NNW
SL-19 R/B 4.2 19:33:36 10° SSE 19:39:33 73° ENE 19:45:11 10° N
ISS -0.5 19:38:44 10° S 19:38:53 11° S 19:38:53 11° S
NOSS 3-1 (A) 3.4 19:35:51 10° S 19:41:18 53° ESE 19:42:21 47° E
Meteor 2-20 Rocket 4.5 19:39:27 10° SSE 19:45:19 52° E 19:46:24 46° ENE
Cosmos 2369 Rocket 4.3 19:42:25 10° N 19:42:51 12° N 19:42:51 12° N
Resurs 01 Rocket 2.2 19:44:01 10° SSE 19:49:47 45° N 19:52:54 10° N
Cosmos 1933 Rocket 4.2 19:46:01 10° SSW 19:50:21 55° W 19:53:46 16° N
Cosmos 1680 Rocket 4.5 19:53:41 10° SW 19:58:39 45° WNW 20:02:29 16° N
Tiangong 1 4.1 19:59:41 10° WNW 20:00:16 13° WNW 20:00:16 13° WNW
Genesis I 4.2 19:58:38 10° SW 20:01:52 45° W 20:01:52 45° W
Lacrosse 4 Rocket 2.9 19:59:47 10° NNW 20:01:45 27° NW 20:01:45 27° NW
Cosmos 1655 Rocket 4.0 19:57:52 10° S 20:04:16 88° W 20:09:16 17° N
Helios 1B rocket 3.8 20:07:51 32° SSW 20:07:51 32° SSW 20:10:08 10° SSW
FENGYUN 3A 3.9 20:03:18 10° S 20:08:36 65° W 20:13:56 10° NNW
In-Cosmos 22 Rocket 4.4 20:09:34 10° S 20:13:54 59° SSW 20:13:54 59° SSW
NOSS 3-1 (C) 3.9 20:13:33 10° SW 20:19:03 52° WNW 20:20:20 44° NNW
Cosmos 1943 3.8 20:17:31 10° SW 20:23:02 53° WNW 20:23:49 49° NW
USA 215 3.4 20:28:15 63° NNW 20:28:15 63° NNW 20:33:45 10° NW
ALOS 4.3 20:33:14 10° SSW 20:37:03 25° W 20:40:55 10° NW
Centaur AC-72 4.5 20:37:13 10° WSW 20:44:01 47° S 20:47:32 40° SE
